Regional Weather Roundup
Issued by NWS

Home | Current Version | Previous Version | Text Only | Print | Product List | Glossary On
Versions: 1 2 3 4 5 6 7 8 9 10 11 12 13 14 15 16 17 18 19 20 21 22 23 24 25 26 27 28 29 30 31 32 33 34 35 36 37 38 39 40 41 42 43 44 45 46 47 48 49 50
000
ASUS43 KLSX 182259
RWRMO

WEATHER SUMMARY FOR MISSOURI
NATIONAL WEATHER SERVICE SPRINGFIELD MO
600 PM CDT FRI APR 18 2014

NOTE: "FAIR" INDICATES FEW OR NO CLOUDS BELOW 12,000 FEET WITH NO
       SIGNIFICANT WEATHER AND/OR OBSTRUCTIONS TO VISIBILITY.
       CURRENT SKY AND/OR WEATHER CONDITIONS ARE NOT AVAILABLE FOR
       CHILLICOTHE AND FARMINGTON.

MOZ001>031-035>038-043-044-053-054-190000-
...NORTHERN AND WESTERN MISSOURI...

CITY           SKY/WX    TMP DP  RH WIND       PRES   REMARKS
KANSAS CTY INT MOSUNNY   67  39  35 S9        30.17F
KANSAS C DTWN  SUNNY     69  39  33 SE9       30.16F
LEE`S SUMMIT   SUNNY     67  42  40 S6        30.18F
ST JOSEPH      SUNNY     69  37  30 S14       30.16F
KIRKSVILLE     SUNNY     66  36  32 SE8       30.22F

$$
MOZ066>068-077>081-088>096-101>105-190000-
...SOUTHWEST MISSOURI...

CITY           SKY/WX    TMP DP  RH WIND       PRES   REMARKS
SPRINGFIELD    MOSUNNY   71  40  32 E8        30.16F
JOPLIN         SUNNY     70  41  34 SE7       30.16F

$$
MOZ032>034-039>042-045>050-055>058-069>072-190000-
...CENTRAL MISSOURI...

CITY           SKY/WX    TMP DP  RH WIND       PRES   REMARKS
COLUMBIA       SUNNY     69  40  34 E5        30.19F
JEFFERSON CITY SUNNY     70  37  29 S9        30.19F
ROLLA          SUNNY     68  39  34 NE6       30.19F
SEDALIA        SUNNY     69  42  37 E5        30.20F
OSAGE BEACH    SUNNY     70  39  32 NE9       30.20F

$$
MOZ051-052-059>065-190000-
...EAST CENTRAL MISSOURI...

CITY           SKY/WX    TMP DP  RH WIND       PRES   REMARKS
ST LOUIS INTL  MOSUNNY   70  38  31 CALM      30.22F
SPIRIT OF STL  SUNNY     69  39  33 CALM      30.21S
ST CHARLES     SUNNY     69  39  33 NE3       30.21F

$$
MOZ072>076-082>087-097>100-106>115-190000-
...SOUTH CENTRAL AND SOUTHEAST MISSOURI...

CITY           SKY/WX    TMP DP  RH WIND       PRES   REMARKS
CAPE GIRARDEAU PTSUNNY   69  45  41 N8        30.18S
FARMINGTON     MOSUNNY   66  43  42 E5        30.23S
POPLAR BLUFF   SUNNY     72  42  34 E6        30.16F
WEST PLAINS    MOSUNNY   71  37  28 E6        30.17F

$$



USA.gov is the U.S. government's official web portal to all federal, state and local government web resources and services.